Regional Weather Roundup
Issued by NWS

Home | Current Version | Previous Version | Text Only | Print | Product List | Glossary On
Versions: 1 2 3 4 5 6 7 8 9 10 11 12 13 14 15 16 17 18 19 20 21 22 23 24 25 26 27 28 29 30 31 32 33 34 35 36 37 38 39 40 41 42 43 44 45 46 47 48 49 50
000
ASUS43 KMKX 140259
RWRWI

WISCONSIN REGIONAL WEATHER ROUNDUP
NATIONAL WEATHER SERVICE MILWAUKEE/SULLIVAN WI
900 PM CST WED DEC 13 2017

NOTE: "FAIR" INDICATES FEW OR NO CLOUDS BELOW 12,000 FEET WITH NO
SIGNIFICANT WEATHER AND/OR OBSTRUCTIONS TO VISIBILITY.

WIZ001-002-006>008-014>016-023>028-140400-
NORTHWEST WISCONSIN

CITY           SKY/WX    TMP DP  RH WIND       PRES   REMARKS
SUPERIOR ARPT  CLOUDY    19  14  79 N6        29.92R WCI  11
ASHLAND        CLOUDY    19  12  74 NE5       29.90S WCI  12
HAYWARD        CLOUDY    20  12  71 NE5       29.87R WCI  13
SIREN          CLOUDY    19  17  90 N3        29.90R
CUMBERLAND     CLOUDY    18  12  79 N7        29.87R WCI   8
RICE LAKE      FLURRIES  18  15  88 CALM      29.89R
CHETEK         CLOUDY    16  13  88 N3        29.89R
LADYSMITH      MOCLDY    13  10  91 NW9       29.87R WCI   0
EAU CLAIRE     NOT AVBL
MENOMONIE      CLEAR     17  12  80 N8        29.89R WCI   7
NEW RICHMOND   CLEAR     13   9  83 CALM      29.91R
OSCEOLA        CLOUDY    18  15  89 W3        29.94R
$$

WIZ003>005-009-010-017-018-140400-
NORTH CENTRAL WISCONSIN

CITY           SKY/WX    TMP DP  RH WIND       PRES   REMARKS
MANITOWISH WTR LGT SNOW  16  15  97 N5        29.79R WCI   9
ARBOR VITAE    FLURRIES  18  15  88 N8        29.78R WCI   8
WOODRUFF       FLURRIES  18  15  88 N8        29.78R WCI   8
RHINELANDER    CLOUDY    15  12  88 N5        29.78R WCI   8
EAGLE RIVER    FLURRIES  16  11  81 N8        29.76R WCI   5
LAND O LAKES   FLURRIES  14  11  86 N8        29.79R WCI   3
PHILLIPS       CLOUDY    15  13  92 NW5       29.81R WCI   7
TOMAHAWK       PTCLDY     9   7  91 NW3       29.79R
MEDFORD        CLEAR     11   8  89 N6        29.79R WCI   1
MERRILL        PTCLDY    12   9  89 N5        29.80R WCI   4
$$

WIZ029-030-035-036-043>047-140400-
CENTRAL WISCONSIN

CITY           SKY/WX    TMP DP  RH WIND       PRES   REMARKS
WAUSAU         PTCLDY    14  11  87 NW6       29.79R WCI   5
MOSINEE        PTCLDY    12  10  92 NW7       29.81R WCI   2
MARSHFIELD     CLOUDY    14  10  84 N7        29.81R WCI   4
STEVENS POINT  MOCLDY    15  10  81 N9        29.80R WCI   3
WAUPACA        CLEAR     19  12  73 N8        29.80R WCI   9
WAUTOMA        CLEAR     18  12  77 N10       29.80R WCI   6
WISC RAPIDS    PTCLDY    17  12  80 N6        29.84R WCI   9
CAMP DOUGLAS   NOT AVBL
$$

WIZ011>013-019>022-031-037>040-048>050-140400-
NORTHEAST WISCONSIN

CITY           SKY/WX    TMP DP  RH WIND       PRES   REMARKS
ANTIGO         MOCLDY    10   8  92 N5        29.76R WCI   1
SHAWANO        CLEAR     17  11  78 N8        29.80R WCI   6
OCONTO         PTCLDY    13   6  74 N7        29.80R WCI   2
STURGEON BAY   NOT AVBL
GREEN BAY      PTCLDY    16   8  71 N16       29.79R WCI   1
MANITOWOC      CLOUDY    19  14  81 N17       29.74R WCI   4
APPLETON       MOCLDY    16   9  73 N15       29.75R WCI   1
CLINTONVILLE   PTCLDY    16   9  73 N7        29.80R WCI   6
OSHKOSH        CLEAR     17  11  77 N21       29.77R WCI   0
$$

WIZ032>034-041-042-053>061-140400-
SOUTHWEST WISCONSIN

CITY           SKY/WX    TMP DP  RH WIND       PRES   REMARKS
LA CROSSE      CLOUDY    22  14  71 N14       29.86R WCI   9
SPARTA         CLEAR     18  14  84 N7        29.85R WCI   9
VIROQUA        PTCLDY    19  15  84 N10G17    29.79R WCI   7
BOSCOBEL       CLOUDY    24  13  62 N8G21     29.84R WCI  15
PRAIRIE DU CHI CLOUDY    24  13  62 NW13G20   29.83R WCI  13
PLATTEVILLE    CLOUDY    24  16  71 N15       29.77R WCI  11
$$

WIZ056-057-062-063-064-067-068-140400-
SOUTH CENTRAL WISCONSIN

CITY           SKY/WX    TMP DP  RH WIND       PRES   REMARKS
REEDSBURG      MOCLDY    20  15  82 N13       29.79R WCI   7
BARABOO/DELLS  MOCLDY    20  16  85 N9        29.77R WCI   9
LONE ROCK      NOT AVBL
MINERAL POINT  CLOUDY    25  18  74 N15G21    29.76R WCI  12
MADISON        CLOUDY    23  18  81 N13G23    29.76R WCI  11
MIDDLETON      CLOUDY    24  19  82 N14G20    29.76R WCI  12
WATERTOWN      LGT SNOW  24  22  91 N17       29.71R WCI  11
MONROE         CLOUDY    25  18  74 N13G20    29.72R WCI  13
JANESVILLE     FLURRIES  27  19  74 NW20      29.71R WCI  13
$$

WIZ051-052-058>065-066-070>072-140400-
SOUTHEAST WISCONSIN

CITY           SKY/WX    TMP DP  RH WIND       PRES   REMARKS
MILWAUKEE      LGT SNOW  28  21  75 N24G39    29.67R BLWGSNOWWCI  14
WAUKESHA       LGT SNOW  23  19  86 N14       29.68R WCI  11
MILWAUKEE/TIMM LGT SNOW  25  19  80 N12G23    29.69R WCI  14
RACINE         FLURRIES  28  21  75 N17G33    29.67R WCI  16
BURLINGTON     PTCLDY    26  22  84 N14G24    29.66R WCI  14
KENOSHA        LGT SNOW  28  21  75 N12G22    29.65R WCI  18
FOND DU LAC    MIX PCPN  19  11  70 N15G28    29.77R WCI   5
SHEBOYGAN      LGT SNOW  21  17  84 N18G26    29.72R FOG     WCI   6
WEST BEND      LGT SNOW  25  23  93 N10G17    29.68R WCI  15
JUNEAU         LGT SNOW  20  16  86 N18G26    29.73R WCI   5
$$

LSZ147-162-140400-
LAKE SUPERIOR

STATION/POSITION TIME  TEMP    WIND        PRES    WAVE
                       AIR SEA DIR/SP/G            HT/PER
                 (UTC) (F)     (DEG/KT/KT) (MB)    (FT/S)
DEVILS ISLAND    0200   21      20/ 14/ 17 1014.1R
SAXON HARBOR     0230   24                 1012.2R
$$

LMZ867-665-643>646-140400-
LAKE MICHIGAN

STATION/POSITION TIME  TEMP    WIND        PRES    WAVE
                       AIR SEA DIR/SP/G            HT/PER
                 (UTC) (F)     (DEG/KT/KT) (MB)    (FT/S)
NORTHPORT PIER   0240   20      20/ 14/ 20 1008.5R
KEWAUNEE LAKESHO 0230   18     350/ 12/ 17 1006.1R
SHEBOYGAN LAKESH 0200   27      40/ 29/ 32 1004.3R
PORT WASHINGTON  0240   26      20/ 10/ 16 1006.4R
MILWAUKEE LAKESH 0230   28      20/ 23/ 27   N/A
KENOSHA   LAKESH 0200   29     350/ 23/ 31 1002.0
$$

TC  - TEMPERATURE IN CELSIUS
VSB - VISIBILITY IN STATUTE MILES
WCI - WIND CHILL INDEX
HX  - HEAT INDEX




USA.gov is the U.S. government's official web portal to all federal, state and local government web resources and services.